Regional Weather Roundup
Issued by NWS

Home | Current Version | Previous Version | Graphics & Text | Print | Product List | Glossary On
Versions: 1 2 3 4 5 6 7 8 9 10 11 12 13 14 15 16 17 18 19 20 21 22 23 24 25 26 27 28 29 30 31 32 33 34 35 36 37 38 39 40 41 42 43 44 45 46 47 48 49 50
000
ASUS43 KMKX 020021
RWRWI

WISCONSIN REGIONAL WEATHER ROUNDUP
NATIONAL WEATHER SERVICE MILWAUKEE/SULLIVAN WI
700 PM CDT FRI AUG 01 2014

NOTE: "FAIR" INDICATES FEW OR NO CLOUDS BELOW 12,000 FEET WITH NO
SIGNIFICANT WEATHER AND/OR OBSTRUCTIONS TO VISIBILITY.

WIZ001-002-006>008-014>016-023>028-020100-
NORTHWEST WISCONSIN

CITY           SKY/WX    TMP DP  RH WIND       PRES   REMARKS
SUPERIOR ARPT  MOSUNNY   64  54  71 NE3       30.07R
6HR MIN TEMP:  60; 6HR MAX TEMP:  70;

ASHLAND        SUNNY     70  62  76 N6        30.08R
6HR MIN TEMP:  70; 6HR MAX TEMP:  78;

HAYWARD        SUNNY     76  59  55 NE5       30.07S
6HR MIN TEMP:  76; 6HR MAX TEMP:  81;

SIREN          MOSUNNY   75  61  62 CALM      30.06S
6HR MIN TEMP:  75; 6HR MAX TEMP:  82;

RICE LAKE      SUNNY     76  60  55 CALM      30.08R
6HR MIN TEMP:  76; 6HR MAX TEMP:  80;

LADYSMITH      SUNNY     76  58  52 NE3       30.09R
6HR MIN TEMP:  76; 6HR MAX TEMP:  80;

EAU CLAIRE     SUNNY     80  62  54 NE5       30.05R HX  81
6HR MIN TEMP:  78; 6HR MAX TEMP:  84; 6HR PCP: TRACE;

MENOMONIE      CLEAR     80  56  44 N6        30.06R HX  80
6HR MIN TEMP:  80; 6HR MAX TEMP:  85;

NEW RICHMOND   MOSUNNY   79  57  47 CALM      30.06R HX  80
6HR MIN TEMP:  79; 6HR MAX TEMP:  83;

OSCEOLA        MOSUNNY   81  56  42 CALM      30.07S HX  81
6HR MIN TEMP:  80; 6HR MAX TEMP:  83;

$$

WIZ003>005-009-010-017-018-020100-
NORTH CENTRAL WISCONSIN

CITY           SKY/WX    TMP DP  RH WIND       PRES   REMARKS
WOODRUFF       MOSUNNY   75  54  48 N6        30.10S
6HR MIN TEMP:  75; 6HR MAX TEMP:  80;

RHINELANDER    MOSUNNY   73  57  57 CALM      30.09S
6HR MIN TEMP:  73; 6HR MAX TEMP:  78;

EAGLE RIVER    MOSUNNY   72  52  49 N6        30.09S
6HR MIN TEMP:  71; 6HR MAX TEMP:  76;

LAND O LAKES   PTSUNNY   72  54  53 N6        30.11R
6HR MIN TEMP:  72; 6HR MAX TEMP:  76;

PHILLIPS       MOSUNNY   72  57  60 NE3       30.09S
6HR MIN TEMP:  72; 6HR MAX TEMP:  77;

TOMAHAWK       MOSUNNY   72  57  58 CALM      30.08S
6HR MIN TEMP:  72; 6HR MAX TEMP:  77;

MEDFORD        MOSUNNY   74  58  56 N5        30.08R
6HR MIN TEMP:  72; 6HR MAX TEMP:  78;

MERRILL        MOSUNNY   74  64  72 CALM      30.07S
6HR MIN TEMP:  73; 6HR MAX TEMP:  79;

$$

WIZ029-030-035-036-043>047-020100-
CENTRAL WISCONSIN

CITY           SKY/WX    TMP DP  RH WIND       PRES   REMARKS
WAUSAU         PTSUNNY   71  62  73 SW6       30.07R
6HR MIN TEMP:  65; 6HR MAX TEMP:  80; 6HR PCP:  0.35;

MOSINEE        MOSUNNY   70  59  68 S10       30.09S
MARSHFIELD     TSTM      65  63  93 S12       30.08R FOG
6HR MIN TEMP:  63; 6HR MAX TEMP:  82; 6HR PCP:  0.27;

STEVENS POINT  CLOUDY    64  56  77 SW5       30.08F
6HR MIN TEMP:  62; 6HR MAX TEMP:  80; 6HR PCP:  0.05;

WAUPACA        CLOUDY    71  52  51 CALM      30.08R
6HR MIN TEMP:  71; 6HR MAX TEMP:  86;

WAUTOMA        CLOUDY    64  59  84 W6        30.06F
6HR MIN TEMP:  63; 6HR MAX TEMP:  81; 6HR PCP:  0.13;

WISC RAPIDS    CLOUDY    65  59  81 CALM      30.09F
6HR MIN TEMP:  65; 6HR MAX TEMP:  82; 6HR PCP: TRACE;

CAMP DOUGLAS   TSTM      63  61  94 E14G20    30.12R VSB 1/2
6HR MIN TEMP:  65; 6HR MAX TEMP:  82; 6HR PCP:  0.08;

$$

WIZ011>013-019>022-031-037>040-048>050-020100-
NORTHEAST WISCONSIN

CITY           SKY/WX    TMP DP  RH WIND       PRES   REMARKS
ANTIGO         PTSUNNY   67  60  76 S6        30.09R
6HR MIN TEMP:  67; 6HR MAX TEMP:  78;

STURGEON BAY   CLOUDY    70  61  73 S7        30.06S
6HR MIN TEMP:  70; 6HR MAX TEMP:  77;

GREEN BAY      CLOUDY    74  65  73 W3        30.05S
6HR MIN TEMP:  74; 6HR MAX TEMP:  83; 6HR PCP: TRACE;

MANITOWOC      CLOUDY    67  62  84 E5        30.06F
6HR MIN TEMP:  67; 6HR MAX TEMP:  78;

APPLETON       CLOUDY    72  61  68 SW7       30.06F
CLINTONVILLE   CLOUDY    70  59  68 W3        30.07R
OSHKOSH        CLOUDY    72  62  71 SW3       30.05F
6HR MIN TEMP:  70; 6HR MAX TEMP:  81; 6HR PCP:  0.03;

$$

WIZ032>034-041-042-053>061-020100-
SOUTHWEST WISCONSIN

CITY           SKY/WX    TMP DP  RH WIND       PRES   REMARKS
LA CROSSE      MOSUNNY   82  59  45 SW5       30.04F HX  82
6HR MIN TEMP:  82; 6HR MAX TEMP:  86;

SPARTA         PTSUNNY   79  57  45 CALM      30.07S HX  80
6HR MIN TEMP:  79; 6HR MAX TEMP:  83;

VIROQUA        FAIR      77  60  55 CALM      30.09R
6HR MIN TEMP:  77; 6HR MAX TEMP:  80;

BOSCOBEL       SUNNY     83  59  44 N5        30.06S HX  83
6HR MIN TEMP:  83; 6HR MAX TEMP:  88;

PRAIRIE DU CHI SUNNY     79  55  44 CALM      30.06R
PLATTEVILLE    FAIR      78  61  57 W3        30.08R
6HR MIN TEMP:  78; 6HR MAX TEMP:  82;

$$

WIZ056-057-062-063-064-067-068-020100-
SOUTH CENTRAL WISCONSIN

CITY           SKY/WX    TMP DP  RH WIND       PRES   REMARKS
BARABOO/DELLS  CLOUDY    63  57  83 SE7       30.11F
6HR MIN TEMP:  63; 6HR MAX TEMP:  84; 6HR PCP:  0.06;

LONE ROCK      PTSUNNY   77  55  46 NE17G31   30.08R
6HR MIN TEMP:  77; 6HR MAX TEMP:  87;

WATERTOWN      CLOUDY    73  61  67 NW16      30.09R
6HR MIN TEMP:  73; 6HR MAX TEMP:  83;

MADISON        TSTM      65  60  84 N14       30.11R
6HR MIN TEMP:  61; 6HR MAX TEMP:  86; 6HR PCP:  0.74;

MIDDLETON      CLOUDY    66  59  78 N16G23    30.12R
6HR MIN TEMP:  66; 6HR MAX TEMP:  85; 6HR PCP:  0.18;

MONROE         MOSUNNY   79  57  47 N3        30.07R HX  80
JANESVILLE     MOSUNNY   79  55  44 NW15G26   30.08R THUNDER
$$

WIZ051-052-058>065-066-070>072-020100-
SOUTHEAST WISCONSIN

CITY           SKY/WX    TMP DP  RH WIND       PRES   REMARKS
MILWAUKEE      TSTM      66  52  60 S6        30.11R
6HR MIN TEMP:  66; 6HR MAX TEMP:  83; 6HR PCP:  0.25;

WAUKESHA       TSTM      61  55  82 SE10G21   30.12F
MILWAUKEE/TIMM TSTM      63  57  82 SW16      30.12R
RACINE         MOSUNNY   72  60  66 S10       30.09R
6HR MIN TEMP:  72; 6HR MAX TEMP:  83;

BURLINGTON     CLOUDY    64  50  61 NE17G30   30.13R
6HR MIN TEMP:  64; 6HR MAX TEMP:  81;

KENOSHA        MOSUNNY   74  60  61 SE6       30.08R
6HR MIN TEMP:  74; 6HR MAX TEMP:  83;

FOND DU LAC    CLOUDY    72  61  68 NE5       30.07R
6HR MIN TEMP:  69; 6HR MAX TEMP:  82; 6HR PCP:  0.02;

SHEBOYGAN      CLOUDY    69  61  75 SW3       30.06F
6HR MIN TEMP:  69; 6HR MAX TEMP:  82;

WEST BEND      CLOUDY    70  55  60 S6        30.10S
JUNEAU         DRIZZLE   71  57  61 W10       30.12R
6HR MIN TEMP:  71; 6HR MAX TEMP:  81;

$$

LSZ147-162-020100-
LAKE SUPERIOR

STATION/POSITION TIME  TEMP    WIND        PRES    WAVE
                       AIR SEA DIR/SP/G            HT/PER
                 (UTC) (F)     (DEG/KT/KT) (MB)    (FT/S)
W MID LAKE BUOY  2350   51 47   30/  4/  4 1018.6R   0
PORT WING        2300   64      30/ 13/ 14 1017.9S
SAXON HARBOR     2300           CALM  /  2 1018.6S
$$

LMZ867-665-643>646-020100-
LAKE MICHIGAN

STATION/POSITION TIME  TEMP    WIND        PRES    WAVE
                       AIR SEA DIR/SP/G            HT/PER
                 (UTC) (F)     (DEG/KT/KT) (MB)    (FT/S)
N MID LAKE BUOY  2350   64 61  150/  4/  4 1017.5S   0
NORTHPORT PIER   2300   65     140/  7/  8 1017.9R
SISTER BAY       2211   70     110/ 10/ 13   N/A
ALGOMA LAKESHORE 2306           90/  7/  7   N/A
KEWAUNEE LAKESHO 2300   63     160/  5/  7 1017.2R
SHEBOYGAN LAKESH 0000   70     210/  5/  6 1017.7F
PORT WASHINGTON  2340   68     220/  4/  7 1019.0S
ATWATER BUOY     0000   72     110/ 10     1019.0F
MILWAUKEE LAKESH 0000   67     170/ 10/ 13   N/A
S MID LAKE BUOY  2350   67 65  190/  8/  8 1018.4R   0
KENOSHA   LAKESH 0000   70     180/  8/ 12 1017.9R
$$

TC  - TEMPERATURE IN CELSIUS
VSB - VISIBILITY IN STATUTE MILES
WCI - WIND CHILL INDEX
HX  - HEAT INDEX




USA.gov is the U.S. government's official web portal to all federal, state and local government web resources and services.